Tracking 18984 objects as of 23-Feb-2018
HD Live streaming from Space Station
objects crossing your sky now

FENGYUN 1C DEB

Track FENGYUN 1C DEB now!
10-day predictions


NORAD ID: 31033
Int'l Code: 1999-025BEB
Perigee: 703.0 km
Apogee: 932.5 km
Inclination: 98.6 °
Period: 101.1 minutes
Semi major axis: 7188 km
RCS: 0.0023 m2 (small)
Launch date: May 10, 1999
Source: People's Republic of China (PRC)
Launch site: Taiyaun Space Center, China (TSC)

Note: This is SATELLITE DEBRIS
aabbcc
Your satellite tracking list
Your tracking list is empty




NASA's NSSDC Master Catalog

Two Line Element Set (TLE):
1 31033U 99025BEB 18053.35846330 +.00000042 +00000-0 +32691-4 0  9995
2 31033 098.5538 106.0415 0159653 183.7886 236.3521 14.24377882567463
Source of the keplerian elements: AFSPC